ProjectID,Date,Electric Generation,Electric Utility Import,Facility Electric Load
,YYYY-MM-DD,kW,kW,kW
125,2013-03-01,0.21,,0.21
125,2013-03-02,0.21262499999999998,,0.21262499999999998
125,2013-03-03,0.21266666666666667,,0.21266666666666667
125,2013-03-04,0.21262499999999998,,0.21262499999999998
125,2013-03-05,0.20483333333333334,,0.20483333333333334
125,2013-03-06,0.21262499999999998,,0.21262499999999998
125,2013-03-07,0.20483333333333334,,0.20483333333333334
125,2013-03-08,0.20875,,0.20875
125,2013-03-09,0.20875,,0.20875
125,2013-03-10,0.21266666666666667,,0.21266666666666667
125,2013-03-11,0.20483333333333334,,0.20483333333333334
125,2013-03-12,0.20483333333333334,,0.20483333333333334
125,2013-03-13,0.20479166666666668,,0.20479166666666668
125,2013-03-14,0.20875,,0.20875
125,2013-03-15,0.20870833333333336,,0.20870833333333336
125,2013-03-16,0.20875,,0.20875
125,2013-03-17,0.20870833333333336,,0.20870833333333336
125,2013-03-18,0.20870833333333336,,0.20870833333333336
125,2013-03-19,0.20483333333333334,,0.20483333333333334
125,2013-03-20,0.20350000000000001,,0.20350000000000001
125,2013-03-21,0.20479166666666668,,0.20479166666666668
125,2013-03-22,0.2957916666666667,,0.2957916666666667
125,2013-03-23,0.0,,0.0
125,2013-03-24,0.0,,0.0
125,2013-03-25,0.13804166666666667,,0.13804166666666667
125,2013-03-26,0.0,,0.0
125,2013-03-27,0.15133333333333335,,0.15133333333333335
125,2013-03-28,0.178625,,0.178625
125,2013-03-29,0.15520833333333334,,0.15520833333333334
125,2013-03-30,0.20350000000000001,,0.20350000000000001
125,2013-03-31,0.20870833333333336,,0.20870833333333336
125,2013-04-01,1.3883333333333334,,1.3883333333333334
125,2013-04-02,0.48333333333333334,,0.48333333333333334
125,2013-04-03,0.23854166666666665,,0.23854166666666665
125,2013-04-04,0.28662499999999996,,0.28662499999999996
125,2013-04-05,18.38675,,18.38675
125,2013-04-06,0.2670416666666667,,0.2670416666666667
125,2013-04-07,23.53775,,23.53775
125,2013-04-08,34.32175,,34.32175
125,2013-04-09,20.274916666666666,,20.274916666666666
125,2013-04-10,15.568,,15.568
125,2013-04-11,15.036708333333332,,15.036708333333332
125,2013-04-12,0.13825,,0.13825
125,2013-04-13,0.20483333333333334,,0.20483333333333334
125,2013-04-14,0.19962500000000002,,0.19962500000000002
125,2013-04-15,9.170833333333333,,9.170833333333333
125,2013-04-16,0.40525000000000005,,0.40525000000000005
125,2013-04-17,9.017291666666667,,9.017291666666667
125,2013-04-18,17.564041666666665,,17.564041666666665
125,2013-04-19,18.504208333333334,,18.504208333333334
125,2013-04-20,0.19962500000000002,,0.19962500000000002
125,2013-04-21,0.20091666666666666,,0.20091666666666666
125,2013-04-22,0.19962500000000002,,0.19962500000000002
125,2013-04-23,0.225625,,0.225625
125,2013-04-24,11.759458333333333,,11.759458333333333
125,2013-04-25,0.200875,,0.200875
125,2013-04-26,0.20875,,0.20875
125,2013-04-27,0.20091666666666666,,0.20091666666666666
125,2013-04-28,0.20354166666666665,,0.20354166666666665
125,2013-04-29,0.6499583333333333,,0.6499583333333333
125,2013-04-30,1.5925416666666665,,1.5925416666666665
125,2013-05-01,0.5092083333333334,,0.5092083333333334
125,2013-05-02,4.8700833333333335,,4.8700833333333335
125,2013-05-03,12.282708333333334,,12.282708333333334
125,2013-05-04,0.20091666666666666,,0.20091666666666666
125,2013-05-05,0.20870833333333336,,0.20870833333333336
125,2013-05-06,12.017249999999999,,12.017249999999999
125,2013-05-07,10.48475,,10.48475
125,2013-05-08,18.508125,,18.508125
125,2013-05-09,15.254208333333333,,15.254208333333333
125,2013-05-10,16.896125,,16.896125
125,2013-05-11,0.20870833333333336,,0.20870833333333336
125,2013-05-12,0.20875,,0.20875
125,2013-05-13,11.846583333333333,,11.846583333333333
125,2013-05-14,14.245041666666665,,14.245041666666665
125,2013-05-15,15.446916666666667,,15.446916666666667
125,2013-05-16,15.341458333333334,,15.341458333333334
125,2013-05-17,16.00166666666667,,16.00166666666667
125,2013-05-18,0.20875,,0.20875
125,2013-05-19,0.20870833333333336,,0.20870833333333336
125,2013-05-20,15.682625,,15.682625
125,2013-05-21,15.291958333333334,,15.291958333333334
125,2013-05-22,15.488541666666668,,15.488541666666668
125,2013-05-23,14.966416666666667,,14.966416666666667
125,2013-05-24,9.663,,9.663
125,2013-05-25,0.21262499999999998,,0.21262499999999998
125,2013-05-26,0.20479166666666668,,0.20479166666666668
125,2013-05-27,0.20483333333333334,,0.20483333333333334
125,2013-05-28,16.582375,,16.582375
125,2013-05-29,15.249,,15.249
125,2013-05-30,29.338791666666665,,29.338791666666665
125,2013-05-31,49.237125,,49.237125
125,2013-06-01,49.770999999999994,,49.770999999999994
125,2013-06-02,50.070458333333335,,50.070458333333335
125,2013-06-03,54.15504166666667,,54.15504166666667
125,2013-06-04,37.642041666666664,,37.642041666666664
125,2013-06-05,15.829708333333334,,15.829708333333334
125,2013-06-06,15.566666666666668,,15.566666666666668
125,2013-06-07,15.720333333333334,,15.720333333333334
125,2013-06-08,0.20091666666666666,,0.20091666666666666
125,2013-06-09,0.19570833333333335,,0.19570833333333335
125,2013-06-10,18.488541666666666,,18.488541666666666
125,2013-06-11,28.037958333333332,,28.037958333333332
125,2013-06-12,53.21616666666667,,53.21616666666667
125,2013-06-13,55.566541666666666,,55.566541666666666
125,2013-06-14,26.47158333333333,,26.47158333333333
125,2013-06-15,53.129041666666666,,53.129041666666666
125,2013-06-16,52.04958333333334,,52.04958333333334
125,2013-06-17,51.49625,,51.49625
125,2013-06-18,34.8205,,34.8205
125,2013-06-19,16.784166666666668,,16.784166666666668
125,2013-06-20,14.746375,,14.746375
125,2013-06-21,31.846625,,31.846625
125,2013-06-22,52.699375,,52.699375
125,2013-06-23,50.770916666666665,,50.770916666666665
125,2013-06-24,49.638125,,49.638125
125,2013-06-25,49.42850000000001,,49.42850000000001
125,2013-06-26,49.72925,,49.72925
125,2013-06-27,49.58866666666666,,49.58866666666666
125,2013-06-28,49.020999999999994,,49.020999999999994
125,2013-06-29,49.59129166666667,,49.59129166666667
125,2013-06-30,50.20454166666667,,50.20454166666667
125,2013-07-01,52.174625,,52.174625
125,2013-07-02,51.34641666666667,,51.34641666666667
125,2013-07-03,34.98320833333333,,34.98320833333333
125,2013-07-04,18.475333333333335,,18.475333333333335
125,2013-07-05,18.475333333333335,,18.475333333333335
125,2013-07-06,14.803541666666668,,14.803541666666668
125,2013-07-07,10.396041666666667,,10.396041666666667
125,2013-07-08,17.77479166666667,,17.77479166666667
125,2013-07-09,18.47925,,18.47925
125,2013-07-10,18.475333333333335,,18.475333333333335
125,2013-07-11,18.47404166666667,,18.47404166666667
125,2013-07-12,18.484458333333333,,18.484458333333333
125,2013-07-13,14.812624999999999,,14.812624999999999
125,2013-07-14,10.403875000000001,,10.403875000000001
125,2013-07-15,18.687541666666664,,18.687541666666664
125,2013-07-16,18.466208333333334,,18.466208333333334
125,2013-07-17,18.471416666666666,,18.471416666666666
125,2013-07-18,18.46229166666667,,18.46229166666667
125,2013-07-19,18.462333333333333,,18.462333333333333
125,2013-07-20,14.804833333333333,,14.804833333333333
125,2013-07-21,10.403875000000001,,10.403875000000001
125,2013-07-22,18.683583333333335,,18.683583333333335
125,2013-07-23,13.896041666666667,,13.896041666666667
125,2013-07-24,13.962541666666667,,13.962541666666667
125,2013-07-25,16.325875,,16.325875
125,2013-07-26,14.608375,,14.608375
125,2013-07-27,0.20091666666666666,,0.20091666666666666
125,2013-07-28,0.20091666666666666,,0.20091666666666666
125,2013-07-29,14.187708333333333,,14.187708333333333
125,2013-07-30,14.674791666666666,,14.674791666666666
125,2013-07-31,16.653958333333332,,16.653958333333332
125,2013-08-01,19.646083333333333,,19.646083333333333
125,2013-08-02,29.979416666666665,,29.979416666666665
125,2013-08-03,51.76320833333333,,51.76320833333333
125,2013-08-04,51.78787500000001,,51.78787500000001
125,2013-08-05,37.433749999999996,,37.433749999999996
125,2013-08-06,17.920791666666666,,17.920791666666666
125,2013-08-07,16.913,,16.913
125,2013-08-08,16.682541666666665,,16.682541666666665
125,2013-08-09,16.09275,,16.09275
125,2013-08-10,0.19570833333333335,,0.19570833333333335
125,2013-08-11,0.15916666666666665,,0.15916666666666665
125,2013-08-12,10.287916666666666,,10.287916666666666
125,2013-08-13,19.037958333333332,,19.037958333333332
125,2013-08-14,14.767249999999999,,14.767249999999999
125,2013-08-15,16.825833333333332,,16.825833333333332
125,2013-08-16,15.816749999999999,,15.816749999999999
125,2013-08-17,0.20091666666666666,,0.20091666666666666
125,2013-08-18,0.20350000000000001,,0.20350000000000001
125,2013-08-19,14.734708333333332,,14.734708333333332
125,2013-08-20,14.2125,,14.2125
125,2013-08-21,13.729458333333334,,13.729458333333334
125,2013-08-22,14.903875,,14.903875
125,2013-08-23,14.566708333333333,,14.566708333333333
125,2013-08-24,0.20091666666666666,,0.20091666666666666
125,2013-08-25,0.20479166666666668,,0.20479166666666668
125,2013-08-26,14.808916666666667,,14.808916666666667
125,2013-08-27,16.36220833333333,,16.36220833333333
125,2013-08-28,16.204708333333333,,16.204708333333333
125,2013-08-29,31.116208333333333,,31.116208333333333
125,2013-08-30,51.020999999999994,,51.020999999999994
125,2013-08-31,49.592625,,49.592625
125,2013-09-01,49.60037500000001,,49.60037500000001
125,2013-09-02,50.00791666666667,,50.00791666666667
125,2013-09-03,51.16287500000001,,51.16287500000001
125,2013-09-04,53.149750000000004,,53.149750000000004
125,2013-09-05,54.083499999999994,,54.083499999999994
125,2013-09-06,55.67970833333334,,55.67970833333334
125,2013-09-07,55.09133333333333,,55.09133333333333
125,2013-09-08,53.22933333333333,,53.22933333333333
125,2013-09-09,56.833499999999994,,56.833499999999994
125,2013-09-10,51.950625,,51.950625
125,2013-09-11,48.18758333333333,,48.18758333333333
125,2013-09-12,50.549625,,50.549625
125,2013-09-13,54.246208333333335,,54.246208333333335
125,2013-09-14,55.891999999999996,,55.891999999999996
125,2013-09-15,36.98458333333333,,36.98458333333333
125,2013-09-16,56.108125,,56.108125
125,2013-09-17,42.24091666666667,,42.24091666666667
125,2013-09-18,39.244875,,39.244875
125,2013-09-19,54.492250000000006,,54.492250000000006
125,2013-09-20,55.161624999999994,,55.161624999999994
125,2013-09-21,54.3465,,54.3465
125,2013-09-22,56.424749999999996,,56.424749999999996
125,2013-09-23,34.67066666666667,,34.67066666666667
125,2013-09-24,32.17458333333334,,32.17458333333334
125,2013-09-25,53.975291666666664,,53.975291666666664
125,2013-09-26,56.94283333333333,,56.94283333333333
125,2013-09-27,57.920791666666666,,57.920791666666666
125,2013-09-28,56.76175,,56.76175
125,2013-09-29,57.041875000000005,,57.041875000000005
125,2013-09-30,56.284,,56.284
125,2013-10-01,54.5665,,54.5665
125,2013-10-02,52.368625,,52.368625
125,2013-10-03,53.909,,53.909
125,2013-10-04,52.34125,,52.34125
125,2013-10-05,54.875125,,54.875125
125,2013-10-06,55.32170833333333,,55.32170833333333
125,2013-10-07,54.09908333333333,,54.09908333333333
125,2013-10-08,56.46625,,56.46625
125,2013-10-09,45.9505,,45.9505
125,2013-10-10,50.78133333333333,,50.78133333333333
125,2013-10-11,55.92458333333334,,55.92458333333334
125,2013-10-12,55.625166666666665,,55.625166666666665
125,2013-10-13,58.25929166666666,,58.25929166666666
125,2013-10-14,41.31908333333333,,41.31908333333333
125,2013-10-15,56.80350000000001,,56.80350000000001
125,2013-10-16,57.19145833333334,,57.19145833333334
125,2013-10-17,54.899875,,54.899875
125,2013-10-18,56.29175,,56.29175
125,2013-10-19,43.57179166666666,,43.57179166666666
125,2013-10-20,41.63825,,41.63825
125,2013-10-21,55.425958333333334,,55.425958333333334
125,2013-10-22,35.16295833333333,,35.16295833333333
125,2013-10-23,17.284041666666667,,17.284041666666667
125,2013-10-24,8.032708333333334,,8.032708333333334
125,2013-10-25,20.2005,,20.2005
125,2013-10-26,17.77091666666667,,17.77091666666667
125,2013-10-27,0.21258333333333335,,0.21258333333333335
125,2013-10-28,16.0745,,16.0745
125,2013-10-29,13.346499999999999,,13.346499999999999
125,2013-10-30,28.786625,,28.786625
125,2013-10-31,35.90775,,35.90775
125,2013-11-01,53.212250000000004,,53.212250000000004
125,2013-11-02,56.06783333333333,,56.06783333333333
125,2013-11-03,20.092458333333333,,20.092458333333333
125,2013-11-04,0.20079166666666667,,0.20079166666666667
125,2013-11-05,17.50016666666667,,17.50016666666667
125,2013-11-06,0.22045833333333334,,0.22045833333333334
125,2013-11-07,24.047,,24.047
125,2013-11-08,9.875,,9.875
125,2013-11-09,16.0,,16.0
125,2013-11-10,35.9375,,35.9375
125,2013-11-11,28.479208333333332,,28.479208333333332
125,2013-11-12,14.16275,,14.16275
125,2013-11-13,0.31520833333333337,,0.31520833333333337
125,2013-11-14,10.501291666666667,,10.501291666666667
125,2013-11-15,23.37891666666667,,23.37891666666667
125,2013-11-16,23.242208333333334,,23.242208333333334
125,2013-11-17,48.770916666666665,,48.770916666666665
125,2013-11-18,56.22929166666666,,56.22929166666666
125,2013-11-19,6.325541666666666,,6.325541666666666
125,2013-11-20,0.0,,0.0
125,2013-11-21,0.0,,0.0
125,2013-11-22,38.5925,,38.5925
125,2013-11-23,7.268208333333334,,7.268208333333334
125,2013-11-24,0.0,,0.0
125,2013-11-25,0.0,,0.0
125,2013-11-26,0.0,,0.0
125,2013-11-27,27.578166666666664,,27.578166666666664
125,2013-11-28,0.0,,0.0
125,2013-11-29,0.0,,0.0
125,2013-11-30,0.0,,0.0
125,2013-12-01,0.0,,0.0
125,2013-12-02,0.0,,0.0
125,2013-12-03,13.329416666666667,,13.329416666666667
125,2013-12-04,16.658833333333334,,16.658833333333334
125,2013-12-05,54.14195833333333,,54.14195833333333
125,2013-12-06,23.627666666666666,,23.627666666666666
125,2013-12-07,0.0,,0.0
125,2013-12-08,0.0,,0.0
125,2013-12-09,0.0,,0.0
125,2013-12-10,0.0,,0.0
125,2013-12-11,0.0,,0.0
125,2013-12-12,0.0,,0.0
125,2013-12-13,0.0,,0.0
125,2013-12-14,0.0,,0.0
125,2013-12-15,0.0,,0.0
125,2013-12-16,0.0,,0.0
125,2013-12-17,0.9036666666666666,,0.9036666666666666
125,2013-12-18,35.92466666666667,,35.92466666666667
125,2013-12-19,35.34254166666667,,35.34254166666667
125,2013-12-20,30.49608333333333,,30.49608333333333
125,2013-12-21,30.494791666666668,,30.494791666666668
125,2013-12-22,30.488249999999997,,30.488249999999997
125,2013-12-23,30.50391666666667,,30.50391666666667
125,2013-12-24,30.52870833333333,,30.52870833333333
125,2013-12-25,30.550875,,30.550875
125,2013-12-26,30.579458333333335,,30.579458333333335
125,2013-12-27,30.532625,,30.532625
125,2013-12-28,30.516958333333335,,30.516958333333335
125,2013-12-29,30.516958333333335,,30.516958333333335
125,2013-12-30,30.532625,,30.532625
125,2013-12-31,30.541749999999997,,30.541749999999997
125,2014-01-01,30.583375,,30.583375
125,2014-01-02,30.541749999999997,,30.541749999999997
125,2014-01-03,30.567833333333336,,30.567833333333336
125,2014-01-04,30.562625,,30.562625
125,2014-01-05,30.532625,,30.532625
125,2014-01-06,30.509125,,30.509125
125,2014-01-07,32.58345833333333,,32.58345833333333
125,2014-01-08,18.027375,,18.027375
125,2014-01-09,11.600291666666665,,11.600291666666665
125,2014-01-10,8.483083333333333,,8.483083333333333
125,2014-01-11,12.367458333333333,,12.367458333333333
125,2014-01-12,0.21645833333333334,,0.21645833333333334
125,2014-01-13,30.712458333333334,,30.712458333333334
125,2014-01-14,37.09254166666667,,37.09254166666667
125,2014-01-15,17.987,,17.987
125,2014-01-16,14.115958333333333,,14.115958333333333
125,2014-01-17,11.941541666666666,,11.941541666666666
125,2014-01-18,26.938875,,26.938875
125,2014-01-19,20.994958333333333,,20.994958333333333
125,2014-01-20,21.812541666666664,,21.812541666666664
125,2014-01-21,17.388041666666666,,17.388041666666666
125,2014-01-22,14.713625,,14.713625
125,2014-01-23,16.864625,,16.864625
125,2014-01-24,20.346541666666667,,20.346541666666667
125,2014-01-25,21.28675,,21.28675
125,2014-01-26,26.497625,,26.497625
125,2014-01-27,15.205833333333333,,15.205833333333333
125,2014-01-28,20.109583333333333,,20.109583333333333
125,2014-01-29,12.127708333333333,,12.127708333333333
125,2014-01-30,14.911583333333333,,14.911583333333333
125,2014-01-31,9.205833333333333,,9.205833333333333
125,2014-02-01,23.310083333333335,,23.310083333333335
125,2014-02-02,38.50279166666667,,38.50279166666667
125,2014-02-03,21.489708333333336,,21.489708333333336
125,2014-02-04,10.304791666666667,,10.304791666666667
125,2014-02-05,16.122583333333335,,16.122583333333335
125,2014-02-06,4.890833333333333,,4.890833333333333
125,2014-02-07,16.320375000000002,,16.320375000000002
125,2014-02-08,27.672124999999998,,27.672124999999998
125,2014-02-09,17.247625,,17.247625
125,2014-02-10,14.937624999999999,,14.937624999999999
125,2014-02-11,12.174624999999999,,12.174624999999999
125,2014-02-12,16.166791666666665,,16.166791666666665
125,2014-02-13,16.34391666666667,,16.34391666666667
125,2014-02-14,12.974125,,12.974125
125,2014-02-15,26.099166666666665,,26.099166666666665
125,2014-02-16,20.521125,,20.521125
125,2014-02-17,22.080916666666667,,22.080916666666667
125,2014-02-18,8.140749999999999,,8.140749999999999
125,2014-02-19,13.958458333333333,,13.958458333333333
125,2014-02-20,22.825625000000002,,22.825625000000002
125,2014-02-21,23.286583333333336,,23.286583333333336
125,2014-02-22,38.59666666666667,,38.59666666666667
125,2014-02-23,43.99766666666667,,43.99766666666667
125,2014-02-24,17.778791666666667,,17.778791666666667
125,2014-02-25,15.817833333333333,,15.817833333333333
125,2014-02-26,13.502708333333333,,13.502708333333333
125,2014-02-27,13.536625,,13.536625
125,2014-02-28,14.010583333333335,,14.010583333333335
125,2014-03-01,18.5965,,18.5965
125,2014-03-02,20.416791666666665,,20.416791666666665
125,2014-03-03,14.61475,,14.61475
125,2014-03-04,13.500083333333334,,13.500083333333334
125,2014-03-05,13.851708333333333,,13.851708333333333
125,2014-03-06,11.481833333333334,,11.481833333333334
125,2014-03-07,10.492333333333333,,10.492333333333333
125,2014-03-08,38.992416666666664,,38.992416666666664
125,2014-03-09,24.16425,,24.16425
125,2014-03-10,36.99754166666667,,36.99754166666667
125,2014-03-11,47.15904166666667,,47.15904166666667
125,2014-03-12,37.22691666666667,,37.22691666666667
125,2014-03-13,12.307458333333335,,12.307458333333335
125,2014-03-14,27.013166666666667,,27.013166666666667
125,2014-03-15,40.58354166666667,,40.58354166666667
125,2014-03-16,21.088833333333334,,21.088833333333334
125,2014-03-17,13.515666666666666,,13.515666666666666
125,2014-03-18,8.140749999999999,,8.140749999999999
125,2014-03-19,13.734499999999999,,13.734499999999999
125,2014-03-20,44.52875,,44.52875
125,2014-03-21,38.34654166666667,,38.34654166666667
125,2014-03-22,39.078291666666665,,39.078291666666665
125,2014-03-23,21.778833333333335,,21.778833333333335
125,2014-03-24,18.281375,,18.281375
125,2014-03-25,16.518375,,16.518375
125,2014-03-26,12.987083333333333,,12.987083333333333
125,2014-03-27,8.614749999999999,,8.614749999999999
125,2014-03-28,42.716375,,42.716375
125,2014-03-29,31.419458333333335,,31.419458333333335
125,2014-03-30,32.528875,,32.528875
125,2014-03-31,31.62,,31.62
125,2014-04-01,36.937625000000004,,36.937625000000004
125,2014-04-02,36.463791666666665,,36.463791666666665
125,2014-04-03,31.752916666666668,,31.752916666666668
125,2014-04-04,37.92979166666667,,37.92979166666667
125,2014-04-05,31.805000000000003,,31.805000000000003
125,2014-04-06,32.64341666666667,,32.64341666666667
125,2014-04-07,42.50025,,42.50025
125,2014-04-08,29.565375,,29.565375
125,2014-04-09,43.23716666666667,,43.23716666666667
125,2014-04-10,24.62516666666667,,24.62516666666667
125,2014-04-11,39.799749999999996,,39.799749999999996
125,2014-04-12,28.286749999999998,,28.286749999999998
125,2014-04-13,25.84658333333333,,25.84658333333333
125,2014-04-14,35.12525,,35.12525
125,2014-04-15,36.403875,,36.403875
125,2014-04-16,19.213625,,19.213625
125,2014-04-17,10.570375,,10.570375
125,2014-04-18,23.44804166666667,,23.44804166666667
125,2014-04-19,28.008125000000003,,28.008125000000003
125,2014-04-20,33.73983333333333,,33.73983333333333
125,2014-04-21,41.28666666666667,,41.28666666666667
125,2014-04-22,40.341375,,40.341375
125,2014-04-23,23.578500000000002,,23.578500000000002
125,2014-04-24,29.60175,,29.60175
125,2014-04-25,32.966458333333335,,32.966458333333335
125,2014-04-26,29.737125000000002,,29.737125000000002
125,2014-04-27,30.153916666666664,,30.153916666666664
125,2014-04-28,40.15916666666667,,40.15916666666667
125,2014-04-29,33.06795833333333,,33.06795833333333
125,2014-04-30,34.65379166666667,,34.65379166666667
125,2014-05-01,37.268458333333335,,37.268458333333335
125,2014-05-02,35.190374999999996,,35.190374999999996
125,2014-05-03,23.172250000000002,,23.172250000000002
125,2014-05-04,31.29975,,31.29975
125,2014-05-05,41.63316666666667,,41.63316666666667
125,2014-05-06,40.823125,,40.823125
125,2014-05-07,39.64091666666666,,39.64091666666666
125,2014-05-08,42.328375,,42.328375
125,2014-05-09,39.435125,,39.435125
125,2014-05-10,22.278875,,22.278875
125,2014-05-11,20.70329166666667,,20.70329166666667
125,2014-05-12,33.888375,,33.888375
125,2014-05-13,37.25020833333333,,37.25020833333333
125,2014-05-14,28.437791666666666,,28.437791666666666
125,2014-05-15,13.958666666666666,,13.958666666666666
125,2014-05-16,40.56275,,40.56275
125,2014-05-17,25.000291666666666,,25.000291666666666
125,2014-05-18,22.554833333333335,,22.554833333333335
125,2014-05-19,39.349125,,39.349125
125,2014-05-20,36.56016666666667,,36.56016666666667
125,2014-05-21,18.492541666666668,,18.492541666666668
125,2014-05-22,42.09916666666667,,42.09916666666667
125,2014-05-23,38.17995833333333,,38.17995833333333
125,2014-05-24,23.471500000000002,,23.471500000000002
125,2014-05-25,22.169416666666667,,22.169416666666667
125,2014-05-26,15.825833333333334,,15.825833333333334
125,2014-05-27,37.492333333333335,,37.492333333333335
125,2014-05-28,31.315416666666668,,31.315416666666668
125,2014-05-29,41.07833333333333,,41.07833333333333
125,2014-05-30,38.174625,,38.174625
125,2014-05-31,21.484624999999998,,21.484624999999998
125,2014-06-01,22.630499999999998,,22.630499999999998
125,2014-06-02,37.64095833333334,,37.64095833333334
125,2014-06-03,38.01583333333333,,38.01583333333333
125,2014-06-04,39.617375,,39.617375
125,2014-06-05,42.12529166666666,,42.12529166666666
125,2014-06-06,41.10191666666667,,41.10191666666667
125,2014-06-07,31.841375,,31.841375
125,2014-06-08,23.867375,,23.867375
125,2014-06-09,41.82841666666666,,41.82841666666666
125,2014-06-10,39.841375,,39.841375
125,2014-06-11,41.42216666666666,,41.42216666666666
125,2014-06-12,39.92466666666667,,39.92466666666667
125,2014-06-13,28.096625,,28.096625
125,2014-06-14,23.638208333333335,,23.638208333333335
125,2014-06-15,24.315416666666668,,24.315416666666668
125,2014-06-16,36.257958333333335,,36.257958333333335
125,2014-06-17,39.57308333333334,,39.57308333333334
125,2014-06-18,31.05758333333333,,31.05758333333333
125,2014-06-19,41.221583333333335,,41.221583333333335
125,2014-06-20,38.612208333333335,,38.612208333333335
125,2014-06-21,23.265916666666666,,23.265916666666666
125,2014-06-22,24.385666666666665,,24.385666666666665
125,2014-06-23,37.375375,,37.375375
125,2014-06-24,32.11216666666667,,32.11216666666667
125,2014-06-25,36.93775,,36.93775
125,2014-06-26,36.71641666666667,,36.71641666666667
125,2014-06-27,38.570625,,38.570625
125,2014-06-28,23.221541666666667,,23.221541666666667
125,2014-06-29,22.922083333333333,,22.922083333333333
125,2014-06-30,36.41175,,36.41175
125,2014-07-01,29.791833333333333,,29.791833333333333
125,2014-07-02,31.312749999999998,,31.312749999999998
125,2014-07-03,38.29966666666667,,38.29966666666667
125,2014-07-04,0.20091666666666666,,0.20091666666666666